User: anonymous   Login
Location: ????????
(55.0808°N, 38.5463°E)
Time: 20:08:09
(UTC+00:00)
Language:

Nimbus 3 Rocket - Orbit

View from above orbital plane
View from above orbital plane
View from above satellite
View from above satellite

Ground track
Ground track

The orbit data is extracted from the following two-line orbital elements,

1 03892U 69037C   24262.75057590  .00000045  00000-0  15697-3 0  9991
2 03892  99.9195 172.4763 0039068 171.5633 247.2688 13.42075090714064
Epoch (UTC): 18 September 2024 18:00:49
Eccentricity: 0.0039068
inclination: 99.9195°
perigee height: 1072 km
apogee height: 1131 km
right ascension of ascending node: 172.4763°
argument of perigee: 171.5633°
revolutions per day: 13.42075090
mean anomaly at epoch: 247.2688°
orbit number at epoch: 71406

The dashed part of the orbit path shows where the satellite is in the earth's shadow,  

DLR